Location: Unspecified
(35.7250°N, 0.0000°E)
Time: 18:26:49
(UTC+00:00)

Vanguard 1 Rocket - Pass Details

Date: 25 June 2019
Orbit: 651 x 4225 km, 34.3° (Epoch: 15 July)

Event Time Altitude Azimuth Distance (km) Brightness Sun altitude
Rises 13:39:34 0° 214° (SSW) 8,425 12.6 65.7°
Reaches altitude 10° 13:46:10 10° 207° (SSW) 7,415 12.5 64.4°
Maximum altitude 14:08:15 40° 148° (SSE) 4,459 11.3 60.2°
Drops below altitude 10° 14:22:53 10° 85° (E) 5,091 11.0 57.3°
Sets 14:26:18 0° 78° (ENE) 5,687 11.1 56.6°
